Kelso-Longview, WA
on Wednesday, January 16, 2013

Wednesday
Previous Day Next Day
Daily Summary
 ActualAverage (KSPB)Record (KSPB)
Temperature
Mean Temperature °F °F  
Max Temperature 35°F °F 58°F (2011)
Min Temperature 32°F °F 23°F (2001)
Degree Days
Heating Degree Days 32    
Month to date heating degree days  
Since 1 July heating degree days  
Cooling Degree Days 0    
Month to date cooling degree days  
Year to date cooling degree days  
Moisture
Dew Point 30°F   
Average Humidity 85    
Maximum Humidity 93    
Minimum Humidity 81    
Precipitation
Precipitation 0.00 in in 1.48 in (2006)
Month to date precipitation  
Year to date precipitation  
Wind
Wind Speed 1 mph   
Max Wind Speed 6 mph   
Max Gust Speed mph   
Visibility 9 miles   
Events     

Key: T is trace of precipitation, MM is missing value
Source: NWS Daily Summary
Time(PST)TemperatureDew PointHumidity Pressure Visibility Wind DirectionWind SpeedGust SpeedPrecipitationEvents Conditions
12:15 AM 35.6°F 30.2°F 81% 30.66 in 10.0 miles Calm Calm - N/A   Overcast
12:35 AM 35.6°F 30.2°F 81% 30.66 in 10.0 miles Calm Calm - N/A   Overcast
12:55 AM 35.6°F 30.2°F 81% 30.67 in 10.0 miles Calm Calm - N/A   Overcast
1:15 AM 35.6°F 30.2°F 81% 30.67 in 10.0 miles Calm Calm - N/A   Overcast
1:35 AM 35.6°F 30.2°F 81% 30.67 in 10.0 miles ENE 3.5 mph - N/A   Overcast
1:55 AM 35.6°F 30.2°F 81% 30.67 in 10.0 miles ESE 3.5 mph - N/A   Overcast
2:15 AM 35.6°F 30.2°F 81% 30.67 in 10.0 miles Calm Calm - N/A   Overcast
2:35 AM 35.6°F 30.2°F 81% 30.67 in 10.0 miles Calm Calm - N/A   Overcast
2:55 AM 35.6°F 30.2°F 81% 30.67 in 10.0 miles Calm Calm - N/A   Overcast
3:15 AM 35.6°F 30.2°F 81% 30.67 in 10.0 miles Calm Calm - N/A   Overcast
3:35 AM 35.6°F 30.2°F 81% 30.67 in 10.0 miles Calm Calm - N/A   Overcast
3:55 AM 35.6°F 30.2°F 81% 30.66 in 10.0 miles Calm Calm - N/A   Overcast
4:35 AM 33.8°F 30.2°F 87% 30.65 in 10.0 miles Calm Calm - N/A   Overcast
4:55 AM 33.8°F 30.2°F 87% 30.65 in 10.0 miles Calm Calm - N/A   Overcast
5:15 AM 33.8°F 30.2°F 87% 30.65 in 10.0 miles Calm Calm - N/A   Overcast
5:35 AM 33.8°F 30.2°F 87% 30.64 in 10.0 miles Calm Calm - N/A   Overcast
5:55 AM 33.8°F 30.2°F 87% 30.64 in 10.0 miles Calm Calm - N/A   Overcast
6:15 AM 33.8°F 30.2°F 87% 30.64 in 10.0 miles North 3.5 mph - N/A   Overcast
6:35 AM 33.8°F 28.4°F 81% 30.64 in 10.0 miles Calm Calm - N/A   Overcast
6:55 AM 33.8°F 28.4°F 81% 30.65 in 10.0 miles NW 3.5 mph - N/A   Overcast
7:15 AM 33.8°F 28.4°F 81% 30.65 in 10.0 miles Calm Calm - N/A   Overcast
7:35 AM 33.8°F 28.4°F 81% 30.65 in 10.0 miles Calm Calm - N/A   Overcast
7:55 AM 33.8°F 28.4°F 81% 30.65 in 10.0 miles Calm Calm - N/A   Overcast
8:15 AM 33.8°F 28.4°F 81% 30.65 in 10.0 miles Calm Calm - N/A   Overcast
8:35 AM 33.8°F 30.2°F 87% 30.65 in 10.0 miles Calm Calm - N/A   Overcast
8:55 AM 33.8°F 30.2°F 87% 30.65 in 10.0 miles Calm Calm - N/A   Overcast
9:15 AM 33.8°F 30.2°F 87% 30.65 in 10.0 miles Calm Calm - N/A   Overcast
9:35 AM 35.6°F 30.2°F 81% 30.65 in 10.0 miles Calm Calm - N/A   Overcast
9:55 AM 35.6°F 30.2°F 81% 30.64 in 10.0 miles Calm Calm - N/A   Overcast
10:15 AM 35.6°F 30.2°F 81% 30.64 in 10.0 miles ESE 3.5 mph - N/A   Overcast
10:35 AM 35.6°F 30.2°F 81% 30.64 in 10.0 miles SSE 4.6 mph - N/A   Overcast
11:15 AM 33.8°F 30.2°F 87% 30.63 in 10.0 miles South 4.6 mph - N/A   Overcast
11:35 AM 33.8°F 30.2°F 87% 30.62 in 10.0 miles South 3.5 mph - N/A   Overcast
11:55 AM 33.8°F 30.2°F 87% 30.61 in 10.0 miles Calm Calm - N/A   Overcast
12:15 PM 33.8°F 30.2°F 87% 30.61 in 10.0 miles Calm Calm - N/A   Overcast
12:35 PM 33.8°F 30.2°F 87% 30.60 in 10.0 miles Calm Calm - N/A   Overcast
12:55 PM 35.6°F 30.2°F 81% 30.59 in 10.0 miles NNE 3.5 mph - N/A   Overcast
1:15 PM 35.6°F 30.2°F 81% 30.59 in 10.0 miles NNW 3.5 mph - N/A   Overcast
1:35 PM 35.6°F 30.2°F 81% 30.59 in 10.0 miles Calm Calm - N/A   Overcast
1:55 PM 35.6°F 30.2°F 81% 30.58 in 10.0 miles NW 3.5 mph - N/A   Overcast
2:15 PM 35.6°F 30.2°F 81% 30.58 in 10.0 miles NW 3.5 mph - N/A   Overcast
2:35 PM 35.6°F 30.2°F 81% 30.57 in 10.0 miles Calm Calm - N/A   Overcast
2:55 PM 35.6°F 30.2°F 81% 30.57 in 10.0 miles Calm Calm - N/A   Overcast
3:15 PM 35.6°F 30.2°F 81% 30.57 in 10.0 miles WNW 4.6 mph - N/A   Overcast
3:35 PM 35.6°F 30.2°F 81% 30.57 in 10.0 miles Calm Calm - N/A   Overcast
3:55 PM 33.8°F 30.2°F 87% 30.56 in 10.0 miles Calm Calm - N/A   Overcast
4:15 PM 33.8°F 30.2°F 87% 30.56 in 10.0 miles West 4.6 mph - N/A   Overcast
4:35 PM 33.8°F 30.2°F 87% 30.56 in 10.0 miles Calm Calm - N/A   Overcast
4:55 PM 33.8°F 30.2°F 87% 30.55 in 10.0 miles Calm Calm - N/A   Overcast
5:15 PM 33.8°F 30.2°F 87% 30.55 in 10.0 miles NW 3.5 mph - N/A   Overcast
5:35 PM 33.8°F 30.2°F 87% 30.55 in 10.0 miles NW 5.8 mph - N/A   Overcast
5:55 PM 33.8°F 30.2°F 87% 30.55 in 10.0 miles North - - N/A   Overcast
6:15 PM 33.8°F 30.2°F 87% 30.55 in 10.0 miles NNW 3.5 mph - N/A   Overcast
6:35 PM 33.8°F 30.2°F 87% 30.55 in 10.0 miles Calm Calm - N/A   Overcast
6:55 PM 33.8°F 30.2°F 87% 30.55 in 10.0 miles WNW 3.5 mph - N/A   Overcast
7:15 PM 33.8°F 30.2°F 87% 30.56 in 10.0 miles NW 3.5 mph - N/A   Overcast
7:35 PM 33.8°F 28.4°F 81% 30.55 in 10.0 miles Calm Calm - N/A   Overcast
7:55 PM 33.8°F 30.2°F 87% 30.55 in 7.0 miles Calm Calm - N/A   Overcast
8:15 PM 32.0°F 28.4°F 87% 30.55 in 8.0 miles Calm Calm - N/A   Overcast
8:35 PM 32.0°F 28.4°F 87% 30.55 in 8.0 miles Calm Calm - N/A   Overcast
8:55 PM 32.0°F 28.4°F 87% 30.55 in 7.0 miles Calm Calm - N/A   Overcast
9:15 PM 32.0°F 28.4°F 87% 30.54 in 8.0 miles Calm Calm - N/A   Overcast
9:35 PM 32.0°F 28.4°F 87% 30.54 in 4.0 miles Calm Calm - N/A   Overcast
9:55 PM 32.0°F 28.4°F 87% 30.54 in 2.5 miles Calm Calm - N/A   Overcast
10:15 PM 32.0°F 30.2°F 93% 30.53 in 3.0 miles Calm Calm - N/A   Overcast
10:35 PM 32.0°F 28.4°F 87% 30.53 in 4.0 miles East 3.5 mph - N/A   Overcast
10:55 PM 32.0°F 30.2°F 93% 30.52 in 2.5 miles Calm Calm - N/A   Overcast
11:15 PM 32.0°F 30.2°F 93% 30.52 in 3.0 miles Calm Calm - N/A   Overcast
11:35 PM 33.8°F 30.2°F 87% 30.52 in 2.5 miles Calm Calm - N/A   Overcast
11:55 PM 33.8°F 30.2°F 87% 30.52 in 8.0 miles SSE 4.6 mph - N/A   Overcast
Moon Phase
Jan. 16 Jan. 18 Jan. 26 Feb. 03 Feb. 10
Sunrise:07:49 AM (PST) Moon Rise:10:06 AM (PST)1/16
Sunset:04:54 PM (PST) Moon Set:11:14 PM (PST)1/16

Copyright © 2014 The Weather Underground, Inc.